This demonstration page uses our WeatherBlox Daily Observations layout. Learn more.

Left ArrowRight Arrow

40.92501, -98.34201

Hourly Observations for February 24, 2022

Temp ( °F °C ) Dew Point ( °F °C ) Humidity (%) Winds ( mph kmh ) Pressure ( in mb ) Visibility ( mi km ) Precip ( " mm )
12:53 am 00:53 Clear -2 -18.9 -8 -22.2 75 75 N 7 11 30.55 1035 10 16 0.00 0.00
1:53 am 01:53 Clear 1 -17.2 -6 -21.1 72 72 NNE 8 13 30.53 1034 10 16 0.00 0.00
2:53 am 02:53 Partly Cloudy 2 -16.7 -5 -20.6 72 72 NNE 10 17 30.50 1033 10 16 0.00 0.00
3:07 am 03:07 Mostly Cloudy 2 -16.7 -5 -20.6 72 72 NE 6 9 30.58 1036 10 16 0.00 0.00
3:53 am 03:53 Cloudy 2 -16.7 -4 -20 76 76 NNE 7 11 30.49 1033 10 16 0.00 0.00
4:53 am 04:53 Cloudy 3 -16.1 -4 -20 72 72 NNE 9 15 30.50 1033 10 16 0.00 0.00
5:53 am 05:53 Cloudy 3 -16.1 -3 -19.4 76 76 NNE 8 13 30.49 1033 10 16 0.00 0.00
6:53 am 06:53 Mostly Cloudy 3 -16.1 -3 -19.4 76 76 NE 9 15 30.48 1032 10 16 0.00 0.00
7:53 am 07:53 Mostly Cloudy 4 -15.6 -3 -19.4 73 73 NE 12 19 30.48 1032 10 16 0.00 0.00
8:53 am 08:53 Mostly Cloudy with Haze 5 -15 -3 -19.4 69 69 N 8 13 30.49 1033 5 8 0.00 0.00
9:53 am 09:53 Mostly Cloudy with Light Snow 6 -14.4 -3 -19.4 66 66 NNE 8 13 30.46 1032 7 11 0.00 0.00
10:53 am 10:53 Mostly Cloudy 8 -13.3 -3 -19.4 60 60 N 7 11 30.46 1031 10 16 0.00 0.00
11:53 am 11:53 Mostly Cloudy 12 -11.1 -4 -20 48 48 NNE 9 15 30.44 1031 10 16 0.00 0.00
12:53 pm 12:53 Sunny 14 -10 -6 -21.1 40 40 NE 8 13 30.40 1029 10 16 0.00 0.00
1:53 pm 13:53 Partly Cloudy 16 -8.9 -6 -21.1 37 37 N 9 15 30.36 1028 10 16 0.00 0.00
2:53 pm 14:53 Sunny 18 -7.8 -6 -21.1 34 34 NE 9 15 30.35 1028 10 16 0.00 0.00
3:53 pm 15:53 Mostly Sunny 18 -7.8 -5 -20.6 35 35 N 10 17 30.35 1028 10 16 0.00 0.00
4:53 pm 16:53 Mostly Cloudy 18 -7.8 -1 -18.3 43 43 NNW 14 22 30.38 1029 10 16 0.00 0.00
5:53 pm 17:53 Sunny 14 -10 1 -17.2 56 56 N 15 24 30.41 1030 10 16 0.00 0.00
6:53 pm 18:53 Clear 11 -11.7 2 -16.7 67 67 N 10 17 30.46 1032 10 16 0.00 0.00
7:53 pm 19:53 Clear 7 -13.9 -1 -18.3 70 70 N 9 15 30.49 1032 10 16 0.00 0.00
8:53 pm 20:53 Clear 4 -15.6 -1 -18.3 80 80 N 7 11 30.51 1033 10 16 0.00 0.00
9:53 pm 21:53 Clear 2 -16.7 -3 -19.4 80 80 N 7 11 30.53 1034 10 16 0.00 0.00
10:53 pm 22:53 Clear 1 -17.2 -4 -20 79 79 N 6 9 30.54 1034 10 16 0.00 0.00
11:53 pm 23:53 Clear 1 -17.2 -4 -20 79 79 NNW 3 6 30.55 1034 10 16 0.00 0.00

Powered by AerisWeather